Regional Weather Roundup
Issued by NWS Cleveland, OH

Home | Current Version | Previous Version | Text Only | Print | Product List | Glossary On
Versions: 1 2 3 4 5 6 7 8 9 10 11 12 13 14 15 16 17 18 19 20 21 22 23 24 25 26 27 28 29 30 31 32 33 34 35 36 37 38 39 40 41 42 43 44 45 46 47 48 49 50
000
ASUS41 KCLE 210710
RWRCLE
OHIO REGIONAL WEATHER ROUNDUP
NATIONAL WEATHER SERVICE WILMINGTON, OH
300 AM EDT THU AUG 21 2014

NOTE: "FAIR" INDICATES FEW OR NO CLOUDS BELOW 12,000 FEET WITH NO
SIGNIFICANT WEATHER AND/OR OBSTRUCTIONS TO VISIBILITY.

OHZ001>008-015>018-024>027-034-035-043-044-210800-
   NORTHWEST OHIO

CITY           SKY/WX    TMP DP  RH WIND       PRES   REMARKS
DEFIANCE       CLEAR     71  67  87 SW5       29.98S
FINDLAY        PTCLDY    71  66  84 W8        29.97F
TOLEDO EXPRESS PTCLDY    66  64  93 CALM      29.96S
TOLEDO METCALF PTCLDY    69  63  81 CALM      29.96F
LIMA           PTCLDY    70  65  84 SW7       30.01F
$$

OHZ009>014-019>023-028>033-038-089-210800-
   NORTHEAST OHIO

CITY           SKY/WX    TMP DP  RH WIND       PRES   REMARKS
CLE-HOPKINS    PTCLDY    68  65  90 SW3       29.98F
CLE-LAKEFRONT  MOCLDY    72  66  81 SW7       29.95F
CUY CO. ARPT   NOT AVBL
LORAIN-ELYRIA  CLEAR     70  64  81 W5        29.98S
ASHTABULA      CLEAR     67  65  93 S3        29.97F
AKRON-CANTON   CLEAR     69  64  84 SW3       29.99F
WOOSTER        CLEAR     63  61  93 CALM      30.00S FOG
MANSFIELD      PTCLDY    70  65  84 W7        30.01S
YOUNGSTOWN     CLEAR     67  65  93 SW3       29.99S
$$

OHZ042-051>053-060>062-070>072-077>081-210800-
  SOUTHWEST OHIO

CITY           SKY/WX    TMP DP  RH WIND       PRES   REMARKS
CINC-COVINGTON PTCLDY    68  66  93 CALM      30.04S
CINC-LUNKEN    PTCLDY    65  65 100 SW5       30.03F FOG
HAMILTON       PTCLDY    68  67  96 CALM      30.03F FOG
DAYTON         MOCLDY    71  68  90 SW6       30.03F
WRIGHT-PAT AFB MOCLDY    69  67  93 S5        30.02F
DAYTON GENERAL MOCLDY    72  68  87 SW7       30.03S
WILMINGTON     PTCLDY    69  66  90 SW8       30.04S
$$

OHZ036-037-039>041-045>050-054>059-063>069-073>076-082>088-210800-
  CENTRAL AND SOUTHEAST OHIO

CITY           SKY/WX    TMP DP  RH WIND       PRES   REMARKS
COLUMBUS       CLEAR     74  66  76 W7        30.01S
OSU AIRPORT    CLEAR     70  66  87 W8        30.01S
BOLTON FIELD   CLEAR     68  67  96 W6        30.03S
RICKENBACK AFB CLEAR     68  63  83 S5        30.02R
NEWARK         CLEAR     65  63  93 SW5       30.01R
MARION         PTCLDY    70  65  84 W5        30.00F
LANCASTER      CLEAR     70  66  87 SW5       30.03R
ZANESVILLE     CLEAR     64  63  96 CALM      30.00S
NEW PHILLY     FOG       65  65 100 SE3       29.99F VSB 1/4
$$


USA.gov is the U.S. government's official web portal to all federal, state and local government web resources and services.